DW7601 San Vito IT current weather conditions

sailwx.info

Wind from 315

Air temperature 18.9° C
Dewpoint 15.4° C

Last reported at 2016-Sep-26 21:51 UTC.
Time now 2016-Sep-26 22:29 UTC

Location: N 39°27' E 009°32'.
View on Google Maps.

See reports from other nearby stations

  
Tides and Currents Weather Stations Pressure Air Temp Water Temp Dewpoint Dewpoint Depression Visibility Wind Speed Wind Dir Waves Ship Positions
date/time (UTC)wind fromknots sea level pressurealtimeterstation pressurevisibilityair tempwater tempwave heightnotes
2016-Sep-26 21:51 315 18.9
2016-Sep-26 21:41 315 18.9
2016-Sep-26 21:31 315 19.4
2016-Sep-26 21:21 315 19.4
2016-Sep-26 21:11 315 19.4
2016-Sep-26 21:01 315 19.4
2016-Sep-26 20:51 338 19.4
2016-Sep-26 20:41 045 19.4
2016-Sep-26 20:31 045 19.4
2016-Sep-26 20:21 045 19.4
2016-Sep-26 20:11 022 20.0
2016-Sep-26 20:01 338 20.0
2016-Sep-26 19:51 292 20.0
2016-Sep-26 19:41 338 20.0
2016-Sep-26 19:31 338 20.0
2016-Sep-26 19:21 338 20.0
2016-Sep-26 19:11 270 20.0
2016-Sep-26 19:01 270 20.0
2016-Sep-26 18:51 292 20.0
2016-Sep-26 18:41 022 20.6
2016-Sep-26 18:31 022 20.6
2016-Sep-26 18:21 315 20.6
2016-Sep-26 18:11 022 21.1
2016-Sep-26 18:01 022 21.1
2016-Sep-26 17:51 022 21.7
2016-Sep-26 17:41 21.7
2016-Sep-26 17:31 270 21.7
2016-Sep-26 17:21 158 22.2
2016-Sep-26 17:11 225 22.2
2016-Sep-26 17:01 225 22.2
2016-Sep-26 16:51 225 22.2
2016-Sep-26 16:41 180 22.2
2016-Sep-26 16:31 158 22.8
2016-Sep-26 16:21 202 22.8
2016-Sep-26 16:11 180 23.3
2016-Sep-26 16:01 135 23.3
2016-Sep-26 15:51 180 23.3
2016-Sep-26 15:41 135 0 gusting 1 23.3
2016-Sep-26 15:31 158 0 gusting 2 23.9
2016-Sep-26 15:21 158 0 gusting 2 24.4
2016-Sep-26 15:11 158 0 gusting 1 25.0
2016-Sep-26 15:01 158 25.0
2016-Sep-26 14:51 135 25.0
2016-Sep-26 14:41 158 25.0
2016-Sep-26 14:31 158 25.0
2016-Sep-26 14:21 180 24.4
2016-Sep-26 14:11 112 24.4
2016-Sep-26 14:01 045 23.9
2016-Sep-26 13:51 112 0 gusting 1 23.3
2016-Sep-26 13:41 068 23.3
2016-Sep-26 13:31 112 23.3
2016-Sep-26 13:21 180 23.3
2016-Sep-26 13:11 225 0 gusting 2 23.3
2016-Sep-26 13:01 225 0 gusting 2 23.3
2016-Sep-26 12:51 158 0 gusting 2 22.8
2016-Sep-26 12:41 248 0 gusting 1 22.8
2016-Sep-26 12:31 270 0 gusting 1 22.8
2016-Sep-26 12:21 270 2 gusting 6 22.8
2016-Sep-26 12:11 270 1 gusting 6 22.8
2016-Sep-26 12:01 270 2 gusting 6 22.8
2016-Sep-26 11:51 248 1 gusting 4 23.3
2016-Sep-26 11:41 248 2 gusting 4 24.4
2016-Sep-26 11:31 248 1 gusting 4 25.0
2016-Sep-26 11:21 158 0 gusting 2 25.6
2016-Sep-26 11:11 225 1 gusting 6 26.1
2016-Sep-26 11:01 225 1 gusting 4 27.2
2016-Sep-26 10:51 180 1 gusting 4 27.8
2016-Sep-26 10:41 158 1 gusting 5 27.8
2016-Sep-26 10:31 180 1 gusting 5 28.9
2016-Sep-26 10:21 225 1 gusting 4 27.8
2016-Sep-26 10:11 135 1 gusting 5 28.3
2016-Sep-26 10:01 158 1 gusting 4 28.9
2016-Sep-26 09:51 180 1 gusting 4 28.3
2016-Sep-26 09:41 158 1 gusting 4 28.9
2016-Sep-26 09:31 225 0 gusting 4 28.3
2016-Sep-26 09:21 135 0 gusting 1 27.8
2016-Sep-26 09:11 248 27.2
2016-Sep-26 09:01 315 26.1
2016-Sep-26 08:51 225 26.1
2016-Sep-26 08:41 112 0 gusting 1 25.0
2016-Sep-26 08:31 022 0 gusting 2 25.0
2016-Sep-26 08:21 112 1 gusting 4 24.4
2016-Sep-26 08:11 068 1 gusting 4 23.9
2016-Sep-26 08:01 112 0 gusting 2 23.3
2016-Sep-26 07:51 045 1 gusting 2 22.2
2016-Sep-26 07:41 045 1 gusting 4 21.7
2016-Sep-26 07:31 090 1 gusting 4 21.1
2016-Sep-26 07:21 045 1 gusting 5 20.6
2016-Sep-26 07:11 090 1 gusting 4 20.0
2016-Sep-26 07:01 090 1 gusting 4 19.4
2016-Sep-26 06:51 090 1 gusting 2 18.9
2016-Sep-26 06:41 068 0 gusting 1 18.9
2016-Sep-26 06:31 112 0 gusting 5 18.9
2016-Sep-26 06:21 045 0 gusting 2 18.3
2016-Sep-26 06:11 045 0 gusting 1 18.3
2016-Sep-26 06:01 045 0 gusting 2 18.3
2016-Sep-26 05:51 045 0 gusting 2 17.8
2016-Sep-26 05:41 090 17.8
2016-Sep-26 05:31 17.8
2016-Sep-26 05:21 068 1 gusting 4 18.3
2016-Sep-26 05:11 068 0 gusting 2 18.3
2016-Sep-26 05:01 068 0 gusting 1 18.3
2016-Sep-26 04:51 045 18.3
2016-Sep-26 04:41 112 0 gusting 4 18.3
2016-Sep-26 04:31 068 0 gusting 1 18.3
2016-Sep-26 04:21 022 0 gusting 1 18.3
2016-Sep-26 04:11 045 1 gusting 5 18.9
2016-Sep-26 04:01 045 0 gusting 2 18.9
2016-Sep-26 03:51 045 0 gusting 1 18.9
2016-Sep-26 03:41 068 0 gusting 1 18.9
2016-Sep-26 03:31 090 18.9
2016-Sep-26 03:21 068 0 gusting 1 19.4
2016-Sep-26 03:11 045 1 gusting 4 19.4
2016-Sep-26 03:01 068 1 gusting 4 19.4
2016-Sep-26 02:51 022 1 gusting 4 19.4
2016-Sep-26 02:41 068 1 gusting 5 19.4
2016-Sep-26 02:31 045 1 gusting 4 19.4
2016-Sep-26 02:21 045 1 gusting 2 19.4
2016-Sep-26 02:11 022 1 gusting 5 19.4
2016-Sep-26 02:01 045 0 gusting 2 19.4
2016-Sep-26 01:51 045 1 gusting 2 19.4
2016-Sep-26 01:41 045 0 gusting 4 19.4
2016-Sep-26 01:31 045 0 gusting 1 19.4
2016-Sep-26 01:21 068 19.4
2016-Sep-26 01:11 112 0 gusting 2 19.4
2016-Sep-26 01:01 068 19.4
2016-Sep-26 00:51 045 0 gusting 1 19.4
2016-Sep-26 00:41 090 0 gusting 1 19.4
2016-Sep-26 00:31 045 19.4
2016-Sep-26 00:21 068 19.4
2016-Sep-26 00:11 068 0 gusting 1 19.4
2016-Sep-26 00:01 068 0 gusting 1 19.4
2016-Sep-25 23:51 045 20.0
2016-Sep-25 23:41 068 20.0
2016-Sep-25 23:31 090 0 gusting 1 20.0
2016-Sep-25 23:21 090 20.0
2016-Sep-25 23:11 068 0 gusting 1 20.0
2016-Sep-25 23:01 068 0 gusting 1 20.0
2016-Sep-25 22:51 045 0 gusting 1 20.0
2016-Sep-25 22:41 045 0 gusting 1 20.0
2016-Sep-25 22:31 068 20.0
2016-Sep-25 22:21 045 20.0
2016-Sep-25 22:11 068 20.0
2016-Sep-25 22:01 112 20.0
2016-Sep-25 21:51 045 20.0
2016-Sep-25 21:41 022 20.0
2016-Sep-25 21:31 068 20.0
2016-Sep-25 21:21 068 20.6
2016-Sep-25 21:11 068 20.0
2016-Sep-25 21:01 045 20.0
2016-Sep-25 20:51 068 20.0
2016-Sep-25 20:41 045 20.6
2016-Sep-25 20:31 045 20.6
2016-Sep-25 20:21 068 20.6
2016-Sep-25 20:11 045 20.6
2016-Sep-25 20:01 045 20.6
2016-Sep-25 19:51 112 20.6
2016-Sep-25 19:41 225 20.6
2016-Sep-25 19:31 112 20.6
2016-Sep-25 19:21 112 20.6
2016-Sep-25 19:11 158 20.6
2016-Sep-25 19:01 112 20.6
2016-Sep-25 18:51 112 20.6
2016-Sep-25 18:41 135 20.6
2016-Sep-25 18:31 135 20.6
2016-Sep-25 18:21 135 20.6
2016-Sep-25 18:11 135 21.1
2016-Sep-25 18:01 135 21.1
2016-Sep-25 17:51 180 21.7
2016-Sep-25 17:41 180 21.7
2016-Sep-25 17:31 135 21.7
2016-Sep-25 17:21 135 22.2
2016-Sep-25 17:11 112 22.8
2016-Sep-25 17:01 135 22.8
2016-Sep-25 16:51 135 23.3
2016-Sep-25 16:41 135 23.9
2016-Sep-25 16:31 158 0 gusting 4 24.4
2016-Sep-25 16:21 112 25.0
2016-Sep-25 16:11 135 25.6
2016-Sep-25 16:01 135 0 gusting 2 25.6
2016-Sep-25 15:51 158 0 gusting 2 24.4
2016-Sep-25 15:41 158 24.4
2016-Sep-25 15:31 180 24.4
2016-Sep-25 15:21 158 0 gusting 2 24.4
2016-Sep-25 15:11 135 0 gusting 1 25.0
2016-Sep-25 15:01 158 0 gusting 1 25.6
2016-Sep-25 14:51 158 1 gusting 5 24.4
2016-Sep-25 14:41 135 2 gusting 5 26.1
2016-Sep-25 14:31 158 1 gusting 6 26.7
2016-Sep-25 14:21 248 0 gusting 4 27.2
2016-Sep-25 14:11 068 0 gusting 4 25.6
2016-Sep-25 14:01 090 0 gusting 4 24.4
2016-Sep-25 13:51 180 0 gusting 1 25.0
2016-Sep-25 13:41 158 25.0
2016-Sep-25 13:31 068 0 gusting 1 25.0
2016-Sep-25 13:21 022 0 gusting 2 25.0
2016-Sep-25 13:11 090 0 gusting 1 25.6
2016-Sep-25 13:01 090 2 gusting 6 25.6
2016-Sep-25 12:51 045 2 gusting 6 26.1
2016-Sep-25 12:41 112 1 gusting 5 26.7
2016-Sep-25 12:31 158 2 gusting 6 27.8
2016-Sep-25 12:21 158 2 gusting 6 27.8
2016-Sep-25 12:11 158 0 gusting 5 26.7
2016-Sep-25 12:01 270 26.7
2016-Sep-25 11:51 068 25.6
2016-Sep-25 11:41 158 24.4
2016-Sep-25 11:31 090 24.4
2016-Sep-25 11:21 068 23.3
2016-Sep-25 11:11 112 0 gusting 4 23.3
2016-Sep-25 11:01 045 0 gusting 5 24.4
2016-Sep-25 10:51 068 25.0
2016-Sep-25 10:41 225 24.4
2016-Sep-25 10:31 315 25.0
2016-Sep-25 10:21 225 25.0
2016-Sep-25 10:11 315 23.9
2016-Sep-25 10:01 248 22.2
2016-Sep-25 09:51 315 21.7
2016-Sep-25 09:41 270 21.1
2016-Sep-25 09:31 315 20.6
2016-Sep-25 09:21 315 20.6
2016-Sep-25 09:11 270 20.6
2016-Sep-25 09:01 248 20.6
2016-Sep-25 08:51 248 20.6
2016-Sep-25 08:41 180 21.1
2016-Sep-25 08:31 090 21.1
2016-Sep-25 08:21 135 21.1
2016-Sep-25 08:11 112 0 gusting 1 21.7
2016-Sep-25 08:01 112 22.2
2016-Sep-25 07:51 135 21.7
2016-Sep-25 07:41 068 20.6
2016-Sep-25 07:31 135 20.6
2016-Sep-25 07:21 248 20.6
2016-Sep-25 07:11 068 19.4
2016-Sep-25 07:01 112 18.3
2016-Sep-25 06:51 112 18.3
2016-Sep-25 06:41 045 18.3
2016-Sep-25 06:31 135 17.8
2016-Sep-25 06:21 022 17.8
2016-Sep-25 06:11 045 17.2
2016-Sep-25 06:01 225 17.8
2016-Sep-25 05:51 045 17.8
2016-Sep-25 05:41 068 17.8
2016-Sep-25 05:31 158 17.8
2016-Sep-25 05:21 045 17.8
2016-Sep-25 05:11 248 17.8
2016-Sep-25 05:01 270 17.8
2016-Sep-25 04:51 090 17.8
2016-Sep-25 04:41 045 17.8
2016-Sep-25 04:31 270 17.8
2016-Sep-25 04:21 135 17.8
2016-Sep-25 04:11 112 17.8
2016-Sep-25 04:01 045 17.8
2016-Sep-25 03:51 022 17.8
2016-Sep-25 03:41 338 17.8
2016-Sep-25 03:31 315 17.8
2016-Sep-25 03:21 338 17.8
2016-Sep-25 03:11 068 17.8
2016-Sep-25 03:01 180 17.8
2016-Sep-25 02:51 045 17.8
2016-Sep-25 02:41 045 17.8
2016-Sep-25 02:31 180 17.8
2016-Sep-25 02:21 045 18.3
2016-Sep-25 02:11 090 18.3
2016-Sep-25 02:01 315 18.3
2016-Sep-25 01:51 225 18.3
2016-Sep-25 01:41 315 18.3
2016-Sep-25 01:31 068 18.3
2016-Sep-25 01:21 045 0 gusting 6 17.8
2016-Sep-25 01:11 112 18.3
2016-Sep-25 01:01 045 18.3
2016-Sep-25 00:51 090 18.3
2016-Sep-25 00:41 090 17.8
2016-Sep-25 00:31 112 17.8
2016-Sep-25 00:21 112 17.8
2016-Sep-25 00:11 135 17.8
2016-Sep-25 00:01 068 17.8
2016-Sep-24 23:51 248 17.8
2016-Sep-24 23:41 225 17.8
2016-Sep-24 23:31 315 17.8
2016-Sep-24 23:21 315 17.8
2016-Sep-24 23:11 315 17.8
2016-Sep-24 23:01 315 18.3
2016-Sep-24 22:51 315 18.3
2016-Sep-24 22:41 315 18.3
2016-Sep-24 22:31 315 18.3
2016-Sep-24 22:21 315 18.3
2016-Sep-24 22:11 315 18.3
2016-Sep-24 22:01 315 18.3